[[{"header":{"parameterUnit":"m.s-1","parameterCategory":2,"la1":30.2991,"la2":30.254,"lo1":-89.0895,"lo2":-89.0444,"dy":0.0017,"dx":0.0017,"nx":28,"ny":28,"refTime":"2025-03-30T09:00:00:Z","depth":"0","parameterNumber":2,"parameterNumberName":"U-component_of_CURRENTS"},"data":[0,0,0,0,0,0,0,0,0,0,0,0,0,0,0,0,0,0,0,0,0,0,0,0,0,0,0,0,0,0,0,0,0,0,0,0,0,0,0,0,0,0,0,0,0,0,0,0,0,0,0,0,0,0,0,0,0,0,0.141,0.1409,0,0.1321,0.132,0.1318,0.1208,0.1206,0.1205,0.1204,0.1116,0.1115,0.1114,0,0,0,0,0,0,0,0,0,0,0,0,0,0.1429,0.1429,0.141,0.1409,0.1409,0.1321,0.132,0.1318,0.1208,0.1206,0.1205,0.1203,0.1117,0.1116,0.1114,0,0,0,0,0,0,0,0,0,0,0,0,0,0.1384,0.1429,0.141,0.1347,0.1341,0.1322,0.132,0.1317,0.1208,0.1206,0.1204,0.1202,0.1117,0.1116,0.1114,0.1143,0,0,0.1109,0.1108,0,0,0,0,0,0,0,0,0.1387,0.1383,0.1357,0.1351,0.1344,0.1278,0.1294,0.1261,0.1209,0.1253,0.1204,0.1202,0.1175,0.1169,0.1149,0.1138,0.1135,0.1109,0.1108,0.1107,0.1107,0,0,0,0,0,0,0,0.139,0.1386,0.137,0.1356,0.1349,0.1305,0.1296,0.1287,0.1222,0.1249,0.1242,0.1241,0.1171,0.1151,0.1146,0.1133,0.1109,0.1107,0.1106,0.1106,0.1138,0.1139,0,0,0,0,0,0,0.1417,0.1389,0.1372,0.1367,0.1367,0.1306,0.1296,0.1297,0.1222,0.121,0.1243,0.1236,0.1155,0.1149,0.1143,0.1175,0.1107,0.1105,0.1104,0.1136,0.1138,0.114,0,0,0,0,0,0,0.1417,0.1416,0.1376,0.138,0.1372,0.1309,0.131,0.1296,0.1281,0.1218,0.1205,0.1242,0.1153,0.1145,0.1141,0.1171,0.1105,0.1103,0.1134,0.1136,0.1139,0.1238,0,0,0,0,0,0,0.1418,0.1417,0.1428,0.1382,0.1373,0.1378,0.1312,0.1296,0.1285,0.1276,0.1214,0.1203,0.1151,0.1144,0.114,0.1167,0.1102,0.1131,0.1135,0.1138,0.1232,0.1244,0.1254,0,0,0,0,0,0.1419,0.1433,0.143,0.1428,0.1391,0.138,0.1372,0.1316,0.1288,0.1292,0.1248,0.1205,0.1163,0.1145,0.1139,0.1166,0.113,0.1134,0.1138,0.1228,0.1242,0.1253,0,0,0,0,0,0,0.1433,0.1423,0.1417,0.1424,0.1417,0.1364,0.1359,0.1336,0.1304,0.1292,0.123,0.1217,0.1223,0.1191,0.1173,0.1188,0.114,0.1143,0.121,0.1223,0.1234,0.123,0.11,0,0,0,0,0,0.1452,0.1463,0.145,0.1456,0.1458,0.142,0.141,0.1381,0.1348,0.1331,0.1292,0.1257,0.1238,0.1227,0.1203,0.1219,0.1237,0.1234,0.1245,0.1254,0.1249,0.1307,0.1323,0.1154,0.1154,0.1154,0,0,0.1454,0.1455,0.1457,0.1462,0.1445,0.1442,0.1406,0.1402,0.1395,0.1332,0.1314,0.1296,0.1252,0.1256,0.1257,0.1232,0.1325,0.1259,0.1267,0.1257,0.1313,0.133,0.1345,0.1157,0.1156,0.1156,0,0,0.1459,0.1475,0.1482,0.1486,0.1486,0.147,0.1481,0.1454,0.1439,0.144,0.139,0.1394,0.1362,0.1336,0.1318,0.1382,0.138,0.1382,0.1429,0.1487,0.1501,0.1514,0.1614,0.1635,0.1385,0.1385,0.1385,0,0.146,0.1469,0.1482,0.1491,0.1489,0.1489,0.1489,0.1485,0.146,0.1463,0.1445,0.1426,0.1395,0.1401,0.1414,0.1404,0.1454,0.1383,0.1502,0.1514,0.1526,0.1625,0.1646,0.139,0.139,0.1389,0.1389,0,0.1465,0.1475,0.1481,0.1493,0.1503,0.1507,0.1514,0.1529,0.1526,0.1519,0.1543,0.1518,0.1504,0.1508,0.1472,0.1537,0.1556,0.1513,0.1471,0.1549,0.1649,0.167,0.1398,0.1396,0.1395,0.1393,0,0,0.1443,0.1476,0.1474,0.1486,0.1504,0.1512,0.1532,0.155,0.1573,0.1579,0.1609,0.1595,0.1604,0.1586,0.157,0.1615,0.1754,0.1604,0.1604,0.1707,0.1934,0.1982,0.2009,0.174,0.1743,0.1745,0.1993,0,0.1433,0.145,0.1467,0.1481,0.1491,0.1515,0.1536,0.1563,0.159,0.1631,0.1643,0.1665,0.1628,0.1645,0.1687,0.1727,0.1804,0.1694,0.1838,0.1843,0.1878,0.2032,0.2001,0.222,0.2012,0.2016,0.2018,0,0.1421,0.1438,0.1448,0.1487,0.1495,0.1509,0.1563,0.1584,0.1649,0.1676,0.1717,0.1735,0.1801,0.1761,0.1897,0.1835,0.1896,0.1934,0.1944,0.1958,0.1928,0.2096,0.2265,0.2191,0.2049,0.2047,0.2045,0,0.1398,0.1422,0.1434,0.1443,0.1489,0.1507,0.1534,0.1595,0.1637,0.1717,0.178,0.1838,0.191,0.1969,0.2055,0.1991,0.223,0.2145,0.2257,0.2263,0.2246,0.2245,0.2353,0.2261,0.2261,0.226,0.2259,0,0.138,0.1389,0.1428,0.1436,0.1466,0.1502,0.1551,0.1594,0.1679,0.1757,0.1807,0.1906,0.1969,0.2102,0.2133,0.2299,0.2305,0.2313,0.2338,0.2287,0.2286,0.2222,0.2164,0.2269,0.2267,0.2265,0.2264,0,0.1358,0.1375,0.1397,0.1442,0.1456,0.1482,0.1558,0.1611,0.1695,0.1811,0.185,0.2008,0.2194,0.2284,0.2432,0.244,0.25,0.2601,0.2565,0.258,0.2561,0.251,0.2533,0.2452,0.2761,0.2764,0.2766,0,0.1347,0.1356,0.1399,0.1421,0.1441,0.1485,0.1526,0.1602,0.1674,0.1878,0.1951,0.2176,0.2339,0.261,0.2678,0.2813,0.2659,0.2841,0.2682,0.2609,0.257,0.2394,0.2307,0.2731,0.2733,0.2734,0.2735,0,0.1335,0.1353,0.138,0.1425,0.1462,0.1504,0.1575,0.1631,0.1754,0.1882,0.2095,0.2247,0.2543,0.2697,0.2886,0.2928,0.2703,0.2876,0.28,0.2576,0.2392,0.2309,0.2544,0.2749,0.2748,0.2747,0.2746,0.2745,0.1329,0.1351,0.1395,0.1437,0.1479,0.1532,0.1559,0.1664,0.1785,0.1971,0.2146,0.2363,0.2627,0.2896,0.2924,0.295,0.2838,0.2863,0.2826,0.2668,0.2519,0.2815,0.3027,0.3028,0.3028,0.3028,0.3028,0,0.132,0.136,0.1408,0.1454,0.1492,0.152,0.1601,0.1634,0.1761,0.1972,0.2157,0.2466,0.2674,0.2825,0.2971,0.2901,0.2702,0.2824,0.2548,0.2474,0.2772,0.2697,0.2847,0.2847,0.2847,0.2847,0.2847,0.2847,0.1319,0.1361,0.1394,0.1451,0.1486,0.1515,0.1546,0.1612,0.1736,0.1956,0.2135,0.2314,0.2628,0.2886,0.2896,0.2823,0.2545,0.2494,0.2403,0.2603,0.26,0.2597,0.2512,0.2621,0.262,0.1997,0.1993,0.199]},{"header":{"parameterUnit":"m.s-1","parameterCategory":2,"la1":30.2991,"la2":30.254,"lo1":-89.0895,"lo2":-89.0444,"dy":0.0017,"dx":0.0017,"nx":28,"ny":28,"refTime":"2025-03-30T09:00:00:Z","depth":"0","parameterNumber":3,"parameterNumberName":"V-component_of_CURRENTS"},"data":[0,0,0,0,0,0,0,0,0,0,0,0,0,0,0,0,0,0,0,0,0,0,0,0,0,0,0,0,0,0,0,0,0,0,0,0,0,0,0,0,0,0,0,0,0,0,0,0,0,0,0,0,0,0,0,0,0,0,-0.0004,-0.0005,0,-0.0062,-0.0063,-0.0063,-0.0085,-0.0084,-0.0084,-0.0084,-0.0178,-0.0181,-0.0183,0,0,0,0,0,0,0,0,0,0,0,0,0,0.0086,0.0085,-0.0004,-0.0005,-0.0006,-0.0062,-0.0063,-0.0064,-0.0085,-0.0084,-0.0084,-0.0084,-0.0177,-0.018,-0.0184,0,0,0,0,0,0,0,0,0,0,0,0,0,0.0039,0.0084,-0.0004,-0.0023,-0.0025,-0.0062,-0.0063,-0.0064,-0.0085,-0.0084,-0.0084,-0.0084,-0.0176,-0.018,-0.0184,-0.0216,0,0,-0.0196,-0.0198,0,0,0,0,0,0,0,0,0.0042,0.0036,-0.0019,-0.0022,-0.0024,-0.0065,-0.0065,-0.0116,-0.0085,-0.0062,-0.0084,-0.0084,-0.0144,-0.015,-0.0162,-0.022,-0.0224,-0.0197,-0.0199,-0.0201,-0.0202,0,0,0,0,0,0,0,0.0045,0.0038,-0.0028,-0.002,-0.0023,-0.0029,-0.0035,-0.0075,-0.0105,-0.0064,-0.0066,-0.0072,-0.0145,-0.0158,-0.0165,-0.0226,-0.0197,-0.02,-0.0203,-0.0204,-0.0319,-0.032,0,0,0,0,0,0,0.0052,0.0041,-0.0026,-0.0029,0.0011,-0.003,-0.0037,-0.0053,-0.0104,-0.0111,-0.0072,-0.0073,-0.0151,-0.016,-0.0168,-0.0207,-0.0201,-0.0205,-0.0207,-0.0319,-0.0319,-0.032,0,0,0,0,0,0,0.0054,0.0047,-0.0023,0.0006,-0.0003,-0.0032,-0.0049,-0.0054,-0.0067,-0.0109,-0.0117,-0.0079,-0.0151,-0.0162,-0.0204,-0.0211,-0.0207,-0.021,-0.0318,-0.0319,-0.032,-0.0287,0,0,0,0,0,0,0.0057,0.0047,0.0041,0.0006,-0.0005,-0.0044,-0.005,-0.0055,-0.0071,-0.0072,-0.0119,-0.0127,-0.0152,-0.0198,-0.0208,-0.0216,-0.0214,-0.0317,-0.0318,-0.0319,-0.0287,-0.0286,-0.0286,0,0,0,0,0,0.006,0.0052,0.0041,0.0033,-0.0014,-0.0045,-0.0051,-0.007,-0.0071,-0.0079,-0.011,-0.0125,-0.0212,-0.0202,-0.0214,-0.0223,-0.0317,-0.0318,-0.0319,-0.0287,-0.0287,-0.0286,0,0,0,0,0,0,0.0092,0.0048,0.0035,0.0014,-0.0013,-0.0048,-0.0056,-0.0069,-0.01,-0.0101,-0.0137,-0.0148,-0.0186,-0.0213,-0.02,-0.026,-0.0266,-0.027,-0.0238,-0.0237,-0.0237,-0.022,-0.0217,0,0,0,0,0,0.0094,0.0073,0.0034,0.0019,0.0005,-0.0026,-0.0039,-0.0055,-0.0086,-0.0098,-0.013,-0.0166,-0.0202,-0.0224,-0.026,-0.0297,-0.0299,-0.0311,-0.031,-0.031,-0.0305,-0.0312,-0.0311,-0.0324,-0.0324,-0.0324,0,0,0.0103,0.0076,0.0065,0.0024,0.0001,-0.0022,-0.0033,-0.0056,-0.0072,-0.0105,-0.0137,-0.0167,-0.0212,-0.0249,-0.0268,-0.0271,-0.0305,-0.0311,-0.031,-0.0306,-0.0313,-0.0311,-0.031,-0.0325,-0.0325,-0.0325,0,0,0.0107,0.0084,0.0065,0.0042,0.0007,-0.0014,-0.002,-0.0058,-0.0072,-0.0108,-0.0133,-0.0165,-0.0224,-0.0252,-0.0276,-0.0296,-0.0301,-0.0309,-0.0295,-0.0302,-0.03,-0.0298,-0.0287,-0.0284,-0.031,-0.031,-0.0309,0,0.0118,0.0088,0.0058,0.0035,0.0021,-0.001,-0.0028,-0.0051,-0.0095,-0.0102,-0.0114,-0.0183,-0.0225,-0.026,-0.027,-0.0294,-0.0289,-0.0291,-0.0298,-0.0297,-0.0296,-0.0285,-0.0282,-0.0308,-0.0308,-0.0308,-0.0309,0,0.0104,0.0083,0.0072,0.0031,0.0013,-0.0007,-0.004,-0.0056,-0.0074,-0.0094,-0.0127,-0.0177,-0.0212,-0.0236,-0.0264,-0.0282,-0.0276,-0.0293,-0.0293,-0.0292,-0.0281,-0.0279,-0.0306,-0.0307,-0.0307,-0.0307,0,0,0.0119,0.007,0.0067,0.0058,0.001,0.0,-0.0026,-0.0052,-0.0045,-0.0095,-0.0088,-0.0168,-0.0179,-0.0206,-0.0241,-0.0257,-0.0253,-0.0271,-0.0272,-0.0246,-0.0246,-0.0244,-0.0242,-0.0264,-0.0264,-0.0264,-0.0235,0,0.0115,0.0086,0.0058,0.0042,0.0027,-0.0,-0.0012,-0.0033,-0.0048,-0.0047,-0.0096,-0.0107,-0.0172,-0.0174,-0.0207,-0.0232,-0.0249,-0.0258,-0.0263,-0.0263,-0.025,-0.0241,-0.0241,-0.0216,-0.0234,-0.0234,-0.0234,0,0.0107,0.0092,0.0073,0.0061,0.0055,0.0046,0.0046,0.0033,0.0021,0.0014,-0.0011,-0.0037,-0.0074,-0.0118,-0.0174,-0.0171,-0.0211,-0.0237,-0.0237,-0.0245,-0.0258,-0.0225,-0.0213,-0.0366,-0.0231,-0.0231,-0.0232,0,0.0139,0.0107,0.01,0.009,0.0066,0.007,0.0068,0.0058,0.0084,0.007,0.0108,0.0035,0.0049,-0.0033,-0.0102,-0.0131,-0.0139,-0.0185,-0.0222,-0.0222,-0.0229,-0.023,-0.0356,-0.0225,-0.0225,-0.0225,-0.0225,0,0.0144,0.0144,0.0121,0.0119,0.0143,0.0114,0.0152,0.0143,0.017,0.0241,0.0156,0.0215,0.0075,0.0052,-0.0054,-0.0117,-0.0104,-0.0211,-0.0216,-0.0218,-0.0217,-0.0357,-0.0446,-0.0224,-0.0224,-0.0224,-0.0224,0,0.0181,0.0154,0.0161,0.0151,0.0157,0.0183,0.023,0.0274,0.0282,0.0382,0.0395,0.0373,0.0343,0.0207,0.0108,-0.0015,-0.0183,-0.0131,-0.0116,-0.012,-0.0327,-0.0413,-0.0519,-0.0587,-0.0179,-0.0178,-0.0178,0,0.0196,0.0197,0.0206,0.0238,0.024,0.0278,0.0321,0.033,0.0405,0.0505,0.0583,0.0575,0.0611,0.0447,0.0211,0.0027,-0.0132,-0.0106,-0.0186,-0.0333,-0.0432,-0.0493,-0.0548,-0.0176,-0.0175,-0.0175,-0.0175,0,0.0242,0.0245,0.0262,0.0328,0.0375,0.0435,0.051,0.0592,0.0652,0.0754,0.0907,0.0945,0.0775,0.0592,0.0301,0.0146,-0.0225,-0.0109,-0.0271,-0.0449,-0.0513,-0.0581,-0.019,-0.0174,-0.0174,-0.0174,-0.0174,-0.0174,0.0295,0.0333,0.037,0.0438,0.0502,0.0619,0.0711,0.0825,0.0979,0.1177,0.1171,0.1267,0.0931,0.0534,0.029,-0.0191,-0.0201,-0.0345,-0.0434,-0.0479,-0.0567,-0.0165,-0.0154,-0.0154,-0.0154,-0.0154,-0.0154,0,0.0369,0.0417,0.0489,0.0583,0.0688,0.0696,0.0862,0.0986,0.1214,0.1365,0.15,0.1387,0.0984,0.0528,-0.0119,-0.0454,-0.0597,-0.0648,-0.0759,-0.0799,-0.0446,-0.047,-0.0515,-0.0515,-0.0515,-0.0515,-0.0515,-0.0515,0.0416,0.0502,0.0542,0.0732,0.0815,0.0984,0.1097,0.1285,0.1426,0.1643,0.1695,0.1688,0.1323,0.018,-0.0591,-0.0779,-0.1035,-0.1084,-0.12,-0.0996,-0.0976,-0.0956,-0.1002,-0.1158,-0.1159,-0.1517,-0.1521,-0.1524]}],[{"header":{"parameterUnit":"m.s-1","parameterCategory":2,"la1":30.2991,"la2":30.254,"lo1":-89.0895,"lo2":-89.0444,"dy":0.0017,"dx":0.0017,"nx":28,"ny":28,"refTime":"2025-03-30T09:00:00:Z","depth":"2","parameterNumber":2,"parameterNumberName":"U-component_of_CURRENTS"},"data":[0,0,0,0,0,0,0,0,0,0,0,0,0,0,0,0,0,0,0,0,0,0,0,0,0,0,0,0,0,0,0,0,0,0,0,0,0,0,0,0,0,0,0,0,0,0,0,0,0,0,0,0,0,0,0,0,0,0,0.1484,0.1484,0,0.142,0.1418,0.1417,0.132,0.1319,0.1317,0.1316,0.1241,0.124,0.1239,0,0,0,0,0,0,0,0,0,0,0,0,0,0.1477,0.1478,0.1484,0.1483,0.1483,0.142,0.1418,0.1417,0.132,0.1319,0.1317,0.1315,0.1241,0.124,0.1239,0,0,0,0,0,0,0,0,0,0,0,0,0,0.1449,0.1478,0.1484,0.1431,0.1425,0.142,0.1418,0.1417,0.132,0.1319,0.1317,0.1315,0.1241,0.124,0.1239,0.127,0,0,0.1235,0.1235,0,0,0,0,0,0,0,0,0.1451,0.1449,0.1439,0.1434,0.1429,0.138,0.1388,0.1369,0.1321,0.1355,0.1316,0.1314,0.1291,0.1285,0.1271,0.1267,0.1264,0.1235,0.1234,0.1234,0.1233,0,0,0,0,0,0,0,0.1453,0.1451,0.1454,0.1439,0.1432,0.1395,0.1388,0.1384,0.1331,0.1352,0.1346,0.1347,0.1287,0.1272,0.1269,0.1263,0.1235,0.1234,0.1233,0.1233,0.1264,0.1266,0,0,0,0,0,0,0.1475,0.1453,0.1456,0.1452,0.144,0.1397,0.1389,0.1394,0.1331,0.1321,0.1349,0.1343,0.1275,0.127,0.1266,0.1295,0.1234,0.1233,0.1232,0.1263,0.1265,0.1266,0,0,0,0,0,0,0.1475,0.1476,0.1458,0.1454,0.145,0.14,0.1405,0.1394,0.1381,0.1329,0.1318,0.1348,0.1274,0.1267,0.1263,0.1291,0.1232,0.1231,0.1261,0.1263,0.1266,0.1356,0,0,0,0,0,0,0.1475,0.1477,0.1489,0.1456,0.1451,0.1466,0.1407,0.1394,0.1386,0.1378,0.1326,0.1316,0.1272,0.1266,0.1262,0.1288,0.123,0.1259,0.1262,0.1265,0.1351,0.1361,0.137,0,0,0,0,0,0.1475,0.1491,0.149,0.1491,0.147,0.1467,0.1461,0.1415,0.1389,0.1394,0.1354,0.1318,0.1281,0.1266,0.1262,0.1288,0.1258,0.1261,0.1265,0.1347,0.1359,0.1369,0,0,0,0,0,0,0.1482,0.1483,0.148,0.1493,0.1492,0.1453,0.1451,0.1432,0.1405,0.1393,0.1339,0.1328,0.1334,0.1307,0.1291,0.1307,0.1264,0.1267,0.1328,0.1339,0.1349,0.1345,0.1229,0,0,0,0,0,0.15,0.1514,0.1511,0.1521,0.1526,0.1498,0.1492,0.1469,0.1443,0.1427,0.1395,0.1363,0.1348,0.1339,0.1319,0.1336,0.135,0.135,0.1359,0.1368,0.1363,0.142,0.1434,0.1278,0.1278,0.1278,0,0,0.1501,0.1508,0.1512,0.1526,0.1515,0.1517,0.1487,0.1488,0.1483,0.1428,0.1413,0.1399,0.1361,0.1366,0.1368,0.1345,0.1428,0.1372,0.1379,0.1369,0.1425,0.144,0.1454,0.128,0.128,0.128,0,0,0.1505,0.1526,0.1534,0.1543,0.1551,0.1541,0.1551,0.1534,0.1521,0.1524,0.148,0.1485,0.1458,0.1437,0.1423,0.148,0.1478,0.1479,0.1521,0.1578,0.1591,0.1603,0.1681,0.1699,0.1482,0.1482,0.1483,0,0.1504,0.1517,0.1537,0.1548,0.155,0.1556,0.1558,0.1559,0.1541,0.1545,0.1527,0.1514,0.1488,0.1497,0.1508,0.1501,0.1541,0.1481,0.1592,0.1603,0.1614,0.1691,0.1709,0.1487,0.1487,0.1486,0.1486,0,0.1511,0.1523,0.1531,0.1548,0.1562,0.1568,0.1581,0.1597,0.1595,0.1593,0.1616,0.1597,0.1586,0.1591,0.156,0.1622,0.1633,0.1601,0.1565,0.1635,0.1712,0.173,0.1494,0.1492,0.1491,0.149,0,0,0.1488,0.1525,0.1524,0.1536,0.1561,0.1572,0.1594,0.1614,0.1638,0.1647,0.1678,0.1666,0.1676,0.1661,0.1649,0.1694,0.1816,0.1683,0.1684,0.1765,0.1974,0.1966,0.1985,0.1812,0.1815,0.1817,0.2013,0,0.1477,0.1496,0.1517,0.1532,0.1542,0.1571,0.1593,0.1623,0.1652,0.1695,0.1711,0.1734,0.1698,0.1715,0.1756,0.1796,0.186,0.1767,0.1888,0.1892,0.188,0.2003,0.1841,0.1999,0.203,0.2033,0.2035,0,0.1465,0.1483,0.1493,0.1534,0.1542,0.1556,0.1611,0.1635,0.1705,0.1734,0.1776,0.1796,0.1859,0.1824,0.1943,0.1891,0.1939,0.1974,0.1982,0.1947,0.1916,0.1925,0.203,0.2064,0.2062,0.206,0.2058,0,0.1437,0.1464,0.1474,0.1485,0.1533,0.155,0.1578,0.1642,0.1688,0.1771,0.1834,0.1889,0.1953,0.2008,0.2073,0.2026,0.2224,0.2164,0.2209,0.221,0.2078,0.2062,0.2263,0.2263,0.2262,0.2262,0.2261,0,0.1417,0.1425,0.1464,0.1472,0.1501,0.1539,0.1588,0.1634,0.1724,0.1803,0.1855,0.1945,0.2006,0.2116,0.2141,0.2252,0.2286,0.225,0.2266,0.2109,0.2094,0.2129,0.2111,0.2269,0.2267,0.2266,0.2265,0,0.1391,0.1408,0.1429,0.1474,0.1489,0.1514,0.1594,0.1647,0.1733,0.185,0.1889,0.2032,0.2175,0.2247,0.2372,0.2362,0.2444,0.2469,0.2295,0.2287,0.2377,0.2361,0.2549,0.255,0.2552,0.2553,0.2553,0,0.1379,0.1386,0.143,0.1451,0.1471,0.1514,0.1556,0.1636,0.1706,0.1903,0.1971,0.2153,0.2265,0.2462,0.2487,0.2571,0.2549,0.2453,0.231,0.2413,0.2411,0.2393,0.2376,0.2194,0.2192,0.2191,0.2189,0,0.1364,0.138,0.1406,0.1449,0.1485,0.153,0.1598,0.1651,0.1775,0.1887,0.2066,0.2175,0.2373,0.2392,0.2497,0.2502,0.2417,0.2422,0.2605,0.2134,0.2091,0.2084,0.2077,0.2174,0.2175,0.2176,0.2177,0.2178,0.1354,0.1375,0.1413,0.1456,0.1496,0.1547,0.158,0.1662,0.1765,0.1901,0.2042,0.2143,0.2227,0.2304,0.229,0.2286,0.2425,0.2305,0.2305,0.2309,0.222,0.2179,0.2265,0.2267,0.2269,0.227,0.2272,0,0.1345,0.1381,0.1423,0.147,0.1506,0.1536,0.1614,0.1632,0.1722,0.1835,0.1943,0.1869,0.1937,0.2011,0.1999,0.2038,0.1959,0.1949,0.1817,0.1838,0.1856,0.1735,0.1657,0.1654,0.1652,0.1649,0,0,0.1341,0.1375,0.1407,0.146,0.15,0.1535,0.1568,0.1588,0.1643,0.164,0.1666,0.1824,0.1963,0.1753,0.1775,0.171,0.1739,0.1654,0.2162,0.2029,0.2041,0.2101,0.1947,0,0,0,0,0]},{"header":{"parameterUnit":"m.s-1","parameterCategory":2,"la1":30.2991,"la2":30.254,"lo1":-89.0895,"lo2":-89.0444,"dy":0.0017,"dx":0.0017,"nx":28,"ny":28,"refTime":"2025-03-30T09:00:00:Z","depth":"2","parameterNumber":3,"parameterNumberName":"V-component_of_CURRENTS"},"data":[0,0,0,0,0,0,0,0,0,0,0,0,0,0,0,0,0,0,0,0,0,0,0,0,0,0,0,0,0,0,0,0,0,0,0,0,0,0,0,0,0,0,0,0,0,0,0,0,0,0,0,0,0,0,0,0,0,0,-0.0232,-0.0232,0,-0.0265,-0.0265,-0.0266,-0.0267,-0.0267,-0.0266,-0.0266,-0.0346,-0.0349,-0.0351,0,0,0,0,0,0,0,0,0,0,0,0,0,-0.0184,-0.0185,-0.0232,-0.0232,-0.0232,-0.0265,-0.0265,-0.0266,-0.0267,-0.0267,-0.0266,-0.0266,-0.0346,-0.0349,-0.0352,0,0,0,0,0,0,0,0,0,0,0,0,0,-0.021,-0.0185,-0.0231,-0.0237,-0.0238,-0.0265,-0.0265,-0.0266,-0.0267,-0.0267,-0.0266,-0.0265,-0.0345,-0.0348,-0.0352,-0.0388,0,0,-0.0364,-0.0365,0,0,0,0,0,0,0,0,-0.0208,-0.0212,-0.0236,-0.0237,-0.0237,-0.0261,-0.0278,-0.0309,-0.0267,-0.0256,-0.0266,-0.0265,-0.0323,-0.0328,-0.0335,-0.0391,-0.0395,-0.0364,-0.0366,-0.0368,-0.0369,0,0,0,0,0,0,0,-0.0206,-0.021,-0.0245,-0.0236,-0.0237,-0.0243,-0.0246,-0.0284,-0.0293,-0.0257,-0.0257,-0.0261,-0.0323,-0.0332,-0.0337,-0.0396,-0.0364,-0.0367,-0.037,-0.0371,-0.0469,-0.047,0,0,0,0,0,0,-0.0202,-0.0209,-0.0244,-0.0246,-0.0221,-0.0244,-0.0247,-0.0254,-0.0292,-0.0297,-0.0261,-0.0261,-0.0325,-0.0333,-0.034,-0.0371,-0.0368,-0.0371,-0.0374,-0.0469,-0.0469,-0.047,0,0,0,0,0,0,-0.0201,-0.0205,-0.0242,-0.0228,-0.0233,-0.0245,-0.0253,-0.0255,-0.026,-0.0295,-0.03,-0.0264,-0.0325,-0.0335,-0.0369,-0.0375,-0.0373,-0.0376,-0.0469,-0.0469,-0.047,-0.0442,0,0,0,0,0,0,-0.02,-0.0205,-0.0206,-0.0227,-0.0233,-0.0255,-0.0254,-0.0256,-0.0264,-0.0263,-0.0299,-0.0306,-0.0326,-0.0363,-0.0372,-0.038,-0.0379,-0.0468,-0.0469,-0.0469,-0.0443,-0.0442,-0.0441,0,0,0,0,0,-0.0198,-0.0198,-0.0206,-0.021,-0.0235,-0.0255,-0.0259,-0.0266,-0.0264,-0.0268,-0.029,-0.0305,-0.0373,-0.0366,-0.0378,-0.0386,-0.0468,-0.0469,-0.0469,-0.0443,-0.0442,-0.0441,0,0,0,0,0,0,-0.017,-0.0199,-0.0208,-0.0214,-0.0234,-0.0255,-0.0257,-0.0266,-0.0286,-0.0285,-0.0314,-0.0323,-0.0354,-0.0376,-0.0368,-0.0416,-0.0422,-0.0425,-0.0398,-0.0398,-0.0397,-0.0377,-0.0383,0,0,0,0,0,-0.0167,-0.0179,-0.0206,-0.0211,-0.022,-0.024,-0.0248,-0.0256,-0.0277,-0.0284,-0.031,-0.0338,-0.0368,-0.0386,-0.0416,-0.0448,-0.0451,-0.0459,-0.0459,-0.0458,-0.0449,-0.046,-0.0458,-0.0472,-0.0472,-0.0472,0,0,-0.0157,-0.0174,-0.018,-0.0206,-0.022,-0.0234,-0.0243,-0.0255,-0.0264,-0.0293,-0.0312,-0.0339,-0.0376,-0.0405,-0.0421,-0.0424,-0.0455,-0.0459,-0.0457,-0.0449,-0.046,-0.0459,-0.0457,-0.0473,-0.0473,-0.0473,0,0,-0.0145,-0.0159,-0.0168,-0.0185,-0.0209,-0.0225,-0.0228,-0.0255,-0.0262,-0.029,-0.0309,-0.0336,-0.0385,-0.0406,-0.0425,-0.0441,-0.045,-0.0453,-0.0434,-0.0445,-0.0443,-0.0442,-0.0439,-0.0437,-0.0452,-0.0452,-0.0452,0,-0.013,-0.0147,-0.0172,-0.0185,-0.0193,-0.022,-0.0227,-0.0245,-0.0277,-0.028,-0.0292,-0.0346,-0.0384,-0.041,-0.0416,-0.0439,-0.0438,-0.0434,-0.0442,-0.0441,-0.044,-0.0437,-0.0436,-0.0451,-0.0451,-0.0451,-0.0451,0,-0.0132,-0.0142,-0.0147,-0.0175,-0.0187,-0.0197,-0.0225,-0.0236,-0.025,-0.0265,-0.029,-0.0336,-0.0362,-0.0384,-0.0409,-0.0423,-0.0422,-0.0438,-0.044,-0.0436,-0.0434,-0.0433,-0.0449,-0.0449,-0.045,-0.045,0,0,-0.0104,-0.0141,-0.0141,-0.0146,-0.0181,-0.0186,-0.0203,-0.0219,-0.0209,-0.0252,-0.0242,-0.0311,-0.0323,-0.0345,-0.0378,-0.0395,-0.0398,-0.0411,-0.0412,-0.0399,-0.0405,-0.0422,-0.0423,-0.0412,-0.0411,-0.0411,-0.0403,0,-0.0097,-0.0111,-0.0133,-0.0137,-0.0145,-0.0167,-0.0172,-0.0188,-0.0201,-0.0198,-0.0244,-0.0254,-0.0312,-0.0314,-0.0345,-0.0378,-0.0396,-0.0398,-0.0418,-0.0418,-0.0426,-0.0423,-0.0399,-0.0392,-0.0402,-0.0402,-0.0402,0,-0.0094,-0.0101,-0.0105,-0.0109,-0.0112,-0.0115,-0.0108,-0.0115,-0.0125,-0.0131,-0.0153,-0.018,-0.0215,-0.0259,-0.0319,-0.0314,-0.0359,-0.039,-0.039,-0.0413,-0.0434,-0.04,-0.039,-0.0401,-0.0401,-0.0401,-0.0401,0,-0.0063,-0.0078,-0.0075,-0.0081,-0.0094,-0.0085,-0.0084,-0.0088,-0.0065,-0.0076,-0.0047,-0.0111,-0.0111,-0.0186,-0.0267,-0.0286,-0.0318,-0.0353,-0.0411,-0.0411,-0.04,-0.04,-0.0394,-0.0394,-0.0394,-0.0394,-0.0394,0,-0.0051,-0.0045,-0.0056,-0.0054,-0.0025,-0.0045,-0.0005,-0.001,0.0014,0.007,-0.0001,0.0035,-0.009,-0.0128,-0.0226,-0.0307,-0.029,-0.04,-0.0412,-0.039,-0.039,-0.0408,-0.041,-0.0394,-0.0394,-0.0394,-0.0394,0,-0.0023,-0.0039,-0.0025,-0.0022,-0.0013,0.0013,0.0059,0.0097,0.0109,0.0186,0.0195,0.016,0.0107,-0.0018,-0.0124,-0.0232,-0.0324,-0.036,-0.0322,-0.0331,-0.042,-0.042,-0.0421,-0.0422,-0.0422,-0.0423,-0.0423,0,-0.0011,-0.0007,0.0013,0.0042,0.0048,0.0087,0.0126,0.0142,0.0198,0.0276,0.0328,0.0299,0.0288,0.0113,-0.0083,-0.0254,-0.0292,-0.0352,-0.0404,-0.0412,-0.0423,-0.0423,-0.0423,-0.0371,-0.0371,-0.037,-0.037,0,0.002,0.0026,0.0043,0.0099,0.0142,0.02,0.0262,0.0315,0.0368,0.0449,0.054,0.0541,0.0375,0.0199,-0.0057,-0.0182,-0.0331,-0.0357,-0.0359,-0.0376,-0.0366,-0.0377,-0.0378,-0.0369,-0.0369,-0.037,-0.037,-0.037,0.005,0.0077,0.0103,0.0162,0.0222,0.0307,0.0368,0.0452,0.0557,0.0677,0.0675,0.0701,0.0477,0.016,-0.0065,-0.0305,-0.031,-0.0402,-0.0401,-0.0401,-0.0405,-0.0397,-0.0406,-0.0406,-0.0407,-0.0407,-0.0407,0,0.0088,0.0117,0.0171,0.0237,0.0314,0.0353,0.046,0.0512,0.0647,0.0777,0.0847,0.0674,0.0471,0.023,-0.0119,-0.0349,-0.0373,-0.0419,-0.0395,-0.0395,-0.0394,-0.0399,-0.0398,-0.0398,-0.0399,-0.0399,0,0,0.0106,0.0146,0.0172,0.0288,0.0372,0.0481,0.0552,0.0635,0.0722,0.0837,0.0903,0.0866,0.0577,0.0326,0.0013,-0.0178,-0.0235,-0.0224,-0.0209,-0.0145,-0.0141,-0.0365,-0.0368,0,0,0,0,0]}],[{"header":{"parameterUnit":"m.s-1","parameterCategory":2,"la1":30.2991,"la2":30.254,"lo1":-89.0895,"lo2":-89.0444,"dy":0.0017,"dx":0.0017,"nx":28,"ny":28,"refTime":"2025-03-30T09:00:00:Z","depth":"4","parameterNumber":2,"parameterNumberName":"U-component_of_CURRENTS"},"data":[0,0,0,0,0,0,0,0,0,0,0,0,0,0,0,0,0,0,0,0,0,0,0,0,0,0,0,0,0,0,0,0,0,0,0,0,0,0,0,0,0,0,0,0,0,0,0,0,0,0,0,0,0,0,0,0,0,0,0.0917,0.0918,0,0.097,0.0971,0.0972,0.1018,0.1019,0.102,0.102,0.1097,0.1098,0.11,0,0,0,0,0,0,0,0,0,0,0,0,0,0.082,0.0821,0.0917,0.0918,0.0919,0.097,0.0971,0.0972,0.1018,0.1019,0.102,0.1021,0.1096,0.1098,0.11,0,0,0,0,0,0,0,0,0,0,0,0,0,0.0866,0.0822,0.0917,0.0949,0.0952,0.097,0.0971,0.0972,0.1018,0.1019,0.102,0.1021,0.1096,0.1098,0.11,0.1095,0,0,0.1107,0.1108,0,0,0,0,0,0,0,0,0.0863,0.0869,0.0944,0.0947,0.0951,0.099,0.0965,0.1014,0.1018,0.0992,0.102,0.1021,0.1063,0.1068,0.1074,0.1098,0.1102,0.1107,0.1108,0.1109,0.111,0,0,0,0,0,0,0,0.086,0.0867,0.0937,0.0944,0.0949,0.0948,0.0956,0.0974,0.1021,0.0994,0.0998,0.1005,0.1065,0.1072,0.1077,0.1103,0.1107,0.1109,0.111,0.1111,0.1175,0.1175,0,0,0,0,0,0,0.0856,0.0864,0.0936,0.0939,0.0909,0.0949,0.0958,0.0975,0.1021,0.1029,0.1004,0.1007,0.1068,0.1074,0.1079,0.1153,0.1109,0.1111,0.1113,0.1174,0.1175,0.1175,0,0,0,0,0,0,0.0854,0.0862,0.0934,0.0903,0.0912,0.095,0.0969,0.0976,0.1002,0.1028,0.1037,0.1026,0.1069,0.1076,0.112,0.1153,0.1112,0.1114,0.1174,0.1174,0.1175,0.125,0,0,0,0,0,0,0.0851,0.0862,0.0879,0.0903,0.0914,0.0959,0.0969,0.0976,0.1004,0.1009,0.1049,0.1056,0.107,0.1116,0.1122,0.1156,0.1116,0.1173,0.1174,0.1175,0.1248,0.1254,0.1259,0,0,0,0,0,0.0848,0.0865,0.088,0.0889,0.0935,0.096,0.0965,0.0994,0.1004,0.102,0.1052,0.1056,0.1124,0.1119,0.1125,0.116,0.1173,0.1174,0.1175,0.1245,0.1252,0.1259,0,0,0,0,0,0,0.0834,0.0872,0.0889,0.0919,0.0945,0.0968,0.0986,0.1001,0.1036,0.1048,0.1069,0.1078,0.1128,0.1123,0.1117,0.1175,0.1146,0.1148,0.1197,0.1204,0.1209,0.1204,0.1118,0,0,0,0,0,0.0837,0.0859,0.0895,0.0917,0.0934,0.0961,0.0977,0.0999,0.1028,0.1045,0.1073,0.1099,0.113,0.1152,0.1172,0.1208,0.121,0.1228,0.1234,0.1239,0.1236,0.1261,0.1269,0.1178,0.1178,0.1178,0,0,0.0836,0.086,0.0873,0.0915,0.0938,0.0964,0.0974,0.1006,0.1031,0.1047,0.1096,0.1124,0.1142,0.1189,0.1209,0.1196,0.127,0.124,0.1245,0.1239,0.1262,0.1272,0.128,0.1178,0.1178,0.1178,0,0,0.0832,0.0869,0.0884,0.0911,0.0951,0.0973,0.0985,0.1025,0.1052,0.1095,0.1119,0.1169,0.1202,0.1237,0.1254,0.1296,0.1299,0.1297,0.1331,0.1356,0.1364,0.1371,0.1411,0.1421,0.1302,0.1302,0.1302,0,0.0831,0.0859,0.0891,0.0914,0.0939,0.0978,0.1004,0.1033,0.1083,0.1111,0.1118,0.1196,0.1226,0.1287,0.1312,0.1314,0.1326,0.1312,0.1366,0.1373,0.1379,0.1418,0.1428,0.1306,0.1305,0.1305,0.1305,0,0.0836,0.0867,0.0879,0.0924,0.0955,0.0984,0.1032,0.1072,0.1109,0.114,0.121,0.1254,0.1304,0.1322,0.1339,0.14,0.1397,0.1373,0.1355,0.1393,0.1431,0.1441,0.1311,0.131,0.1309,0.1308,0,0,0.0813,0.0872,0.0878,0.0903,0.0968,0.0991,0.1046,0.1105,0.1146,0.12,0.1254,0.1327,0.1361,0.138,0.1413,0.144,0.152,0.1432,0.1431,0.1483,0.159,0.1523,0.1527,0.1507,0.1508,0.1509,0.161,0,0.081,0.0846,0.0883,0.0927,0.0955,0.1016,0.1063,0.1124,0.1179,0.1242,0.1301,0.1363,0.1379,0.1424,0.1459,0.1503,0.1542,0.1495,0.1534,0.1535,0.1481,0.1534,0.1513,0.1617,0.1619,0.162,0.1621,0,0.08,0.0831,0.087,0.0939,0.0959,0.0999,0.109,0.1139,0.1234,0.1277,0.1351,0.1397,0.1486,0.1474,0.1572,0.1542,0.1577,0.1595,0.1599,0.151,0.1484,0.1562,0.1638,0.1637,0.1635,0.1634,0.1633,0,0.0753,0.082,0.0851,0.0875,0.096,0.1004,0.1064,0.1157,0.1211,0.1314,0.1361,0.145,0.1521,0.1561,0.1638,0.161,0.1722,0.1684,0.1655,0.1652,0.165,0.164,0.1738,0.1738,0.1738,0.1738,0.1737,0,0.0723,0.075,0.084,0.0854,0.0913,0.0991,0.106,0.113,0.1238,0.1301,0.1389,0.1451,0.1544,0.1624,0.1659,0.1702,0.175,0.1673,0.1672,0.1681,0.1675,0.1658,0.1648,0.1741,0.174,0.174,0.1739,0,0.0657,0.0709,0.0751,0.0849,0.0887,0.0935,0.1057,0.1111,0.1217,0.1305,0.1346,0.1484,0.1589,0.1673,0.1763,0.1736,0.1773,0.1775,0.1814,0.1812,0.1681,0.1673,0.1737,0.1736,0.1735,0.1733,0.1733,0,0.0627,0.0639,0.0733,0.0764,0.0814,0.0897,0.0958,0.1086,0.1139,0.1312,0.1346,0.1502,0.158,0.1667,0.1747,0.1816,0.1797,0.1802,0.1704,0.1687,0.1681,0.1675,0.1669,0.173,0.173,0.173,0.1729,0,0.057,0.0603,0.0638,0.0706,0.0773,0.0833,0.0928,0.0958,0.1107,0.1212,0.1327,0.1417,0.1541,0.1629,0.171,0.1743,0.1782,0.1788,0.1789,0.1696,0.1679,0.1673,0.1668,0.1725,0.1725,0.1726,0.1726,0,0.0534,0.054,0.0591,0.0648,0.0719,0.0765,0.0816,0.0907,0.0988,0.1175,0.1215,0.1388,0.1523,0.1595,0.1663,0.1704,0.1669,0.16,0.1611,0.1617,0.1532,0.149,0.1487,0,0,0,0,0,0.0506,0.0504,0.0537,0.059,0.0655,0.0706,0.08,0.0855,0.0989,0.1044,0.1131,0.1245,0.1382,0.1474,0.1495,0.1603,0.1663,0.1619,0.1583,0.1699,0.1705,0.1616,0,0,0,0,0,0,0.0483,0.0502,0.0512,0.0539,0.0567,0.0639,0.07,0.0787,0.0818,0.096,0.1044,0.1168,0.1317,0.1363,0.1472,0.15,0.1452,0.173,0.1727,0.1696,0.1701,0.1705,0.1616,0,0,0,0,0]},{"header":{"parameterUnit":"m.s-1","parameterCategory":2,"la1":30.2991,"la2":30.254,"lo1":-89.0895,"lo2":-89.0444,"dy":0.0017,"dx":0.0017,"nx":28,"ny":28,"refTime":"2025-03-30T09:00:00:Z","depth":"4","parameterNumber":3,"parameterNumberName":"V-component_of_CURRENTS"},"data":[0,0,0,0,0,0,0,0,0,0,0,0,0,0,0,0,0,0,0,0,0,0,0,0,0,0,0,0,0,0,0,0,0,0,0,0,0,0,0,0,0,0,0,0,0,0,0,0,0,0,0,0,0,0,0,0,0,0,-0.0189,-0.0189,0,-0.0164,-0.0164,-0.0163,-0.015,-0.015,-0.015,-0.015,-0.014,-0.014,-0.0139,0,0,0,0,0,0,0,0,0,0,0,0,0,-0.0225,-0.0224,-0.0189,-0.0189,-0.0189,-0.0164,-0.0164,-0.0163,-0.015,-0.015,-0.015,-0.015,-0.014,-0.014,-0.0139,0,0,0,0,0,0,0,0,0,0,0,0,0,-0.0205,-0.0224,-0.0189,-0.018,-0.0179,-0.0164,-0.0164,-0.0163,-0.015,-0.015,-0.015,-0.015,-0.014,-0.014,-0.0139,-0.0135,0,0,-0.0138,-0.0138,0,0,0,0,0,0,0,0,-0.0206,-0.0203,-0.0181,-0.018,-0.0179,-0.0161,-0.0172,-0.0155,-0.015,-0.016,-0.015,-0.015,-0.0149,-0.0147,-0.0142,-0.0135,-0.0134,-0.0138,-0.0137,-0.0137,-0.0137,0,0,0,0,0,0,0,-0.0207,-0.0204,-0.0179,-0.0181,-0.018,-0.0176,-0.0173,-0.0169,-0.0154,-0.016,-0.0159,-0.0157,-0.0148,-0.0142,-0.0141,-0.0134,-0.0138,-0.0137,-0.0137,-0.0137,-0.0088,-0.0087,0,0,0,0,0,0,-0.0211,-0.0206,-0.018,-0.0178,-0.0194,-0.0175,-0.0172,-0.0166,-0.0154,-0.0152,-0.0157,-0.0156,-0.0143,-0.0142,-0.0141,-0.0126,-0.0137,-0.0137,-0.0137,-0.0089,-0.0088,-0.0087,0,0,0,0,0,0,-0.0212,-0.0209,-0.0181,-0.0192,-0.0188,-0.0175,-0.0168,-0.0166,-0.0165,-0.0152,-0.015,-0.0159,-0.0143,-0.0142,-0.0134,-0.0126,-0.0137,-0.0136,-0.009,-0.0089,-0.0088,-0.0103,0,0,0,0,0,0,-0.0213,-0.021,-0.0212,-0.0192,-0.0188,-0.0171,-0.0168,-0.0165,-0.0163,-0.0163,-0.0153,-0.0152,-0.0143,-0.0135,-0.0133,-0.0126,-0.0136,-0.0092,-0.009,-0.0088,-0.0104,-0.0102,-0.0101,0,0,0,0,0,-0.0215,-0.0204,-0.0212,-0.0209,-0.0189,-0.0171,-0.0168,-0.0159,-0.0164,-0.0159,-0.0152,-0.0153,-0.0121,-0.0134,-0.0133,-0.0125,-0.0093,-0.009,-0.0088,-0.0104,-0.0102,-0.0101,0,0,0,0,0,0,-0.021,-0.0202,-0.0209,-0.0196,-0.0189,-0.0169,-0.0163,-0.0164,-0.0155,-0.0157,-0.0149,-0.0147,-0.0137,-0.0125,-0.0139,-0.0101,-0.0103,-0.01,-0.0115,-0.0114,-0.0112,-0.0102,-0.0135,0,0,0,0,0,-0.0215,-0.021,-0.0202,-0.0191,-0.019,-0.0183,-0.0178,-0.0173,-0.0161,-0.0158,-0.0152,-0.0138,-0.0124,-0.0116,-0.0104,-0.009,-0.0104,-0.0078,-0.0076,-0.0075,-0.0063,-0.0091,-0.0092,-0.008,-0.008,-0.008,0,0,-0.0209,-0.0205,-0.0201,-0.0192,-0.0186,-0.0165,-0.0179,-0.0169,-0.0146,-0.0159,-0.0133,-0.0141,-0.0121,-0.0102,-0.0095,-0.0092,-0.0088,-0.0072,-0.0072,-0.006,-0.0089,-0.009,-0.0092,-0.0078,-0.0078,-0.0078,0,0,-0.018,-0.0194,-0.0176,-0.0171,-0.0166,-0.0159,-0.016,-0.0149,-0.0143,-0.0129,-0.0128,-0.0132,-0.0108,-0.0093,-0.0081,-0.0062,-0.0086,-0.0057,-0.0037,-0.0065,-0.0067,-0.0069,-0.0107,-0.0112,-0.0049,-0.0049,-0.0049,0,-0.0173,-0.015,-0.0168,-0.0146,-0.0134,-0.0155,-0.0125,-0.0118,-0.0106,-0.0101,-0.0118,-0.01,-0.0098,-0.0068,-0.0061,-0.0061,-0.0086,-0.0052,-0.0067,-0.0069,-0.007,-0.0108,-0.0113,-0.005,-0.005,-0.005,-0.005,0,-0.0127,-0.0112,-0.01,-0.0081,-0.0073,-0.0054,-0.0049,-0.0047,-0.0057,-0.0055,-0.0051,-0.0061,-0.0051,-0.0052,-0.0052,-0.0051,-0.007,-0.0073,-0.008,-0.0073,-0.0113,-0.0118,-0.005,-0.005,-0.005,-0.005,0,0,-0.0097,-0.0072,-0.0068,-0.0051,-0.0038,-0.0025,0.0003,0.0021,0.0033,0.0017,0.0028,0.003,-0.0006,0.0006,-0.0008,-0.0029,-0.008,-0.0056,-0.0057,-0.0108,-0.0157,-0.015,-0.0156,-0.0098,-0.0098,-0.0099,-0.0188,0,-0.0054,-0.0004,-0.0001,0.0048,0.0072,0.0063,0.0092,0.0097,0.0087,0.0086,0.0058,0.0057,0.0028,0.0013,-0.0013,-0.0061,-0.0091,-0.0056,-0.0141,-0.0144,-0.0151,-0.016,-0.01,-0.0192,-0.0193,-0.0194,-0.0195,0,-0.0011,0.0016,0.007,0.0105,0.0114,0.0136,0.0155,0.0177,0.0168,0.0156,0.0133,0.0102,0.0071,0.0037,-0.0046,-0.0029,-0.009,-0.0132,-0.0137,-0.0123,-0.0145,-0.0193,-0.0205,-0.0204,-0.0203,-0.0203,-0.0202,0,0.001,0.0064,0.0106,0.012,0.0157,0.0172,0.0184,0.0189,0.0203,0.0186,0.0175,0.0134,0.0098,0.0025,-0.0066,-0.0067,-0.0168,-0.0181,-0.0229,-0.023,-0.0206,-0.0203,-0.024,-0.024,-0.0239,-0.0239,-0.0239,0,0.0051,0.0082,0.0113,0.0135,0.0173,0.0188,0.0219,0.0222,0.0226,0.0238,0.0199,0.0188,0.009,0.0022,-0.0062,-0.0163,-0.017,-0.0226,-0.0249,-0.0211,-0.0207,-0.0212,-0.0208,-0.0243,-0.0242,-0.0241,-0.0241,0,0.0061,0.0089,0.0131,0.0171,0.0182,0.02,0.0232,0.0252,0.0253,0.0262,0.0254,0.0209,0.0124,0.0029,-0.0094,-0.0156,-0.0249,-0.0282,-0.024,-0.0259,-0.0299,-0.0294,-0.0352,-0.0352,-0.0353,-0.0353,-0.0353,0,0.0069,0.0094,0.014,0.0161,0.0176,0.0208,0.0231,0.0252,0.0274,0.0278,0.0279,0.0212,0.017,0.001,-0.0097,-0.025,-0.0266,-0.0323,-0.0303,-0.0292,-0.0309,-0.0303,-0.0298,-0.0354,-0.0354,-0.0354,-0.0354,0,0.0077,0.0089,0.0119,0.0158,0.0186,0.0233,0.0264,0.0283,0.0312,0.0313,0.0306,0.0233,0.0141,0.0019,-0.0098,-0.0206,-0.0289,-0.0327,-0.0327,-0.0309,-0.0295,-0.031,-0.0304,-0.0355,-0.0355,-0.0355,-0.0355,0,0.0066,0.0081,0.0115,0.015,0.019,0.024,0.0267,0.0299,0.0323,0.0334,0.0326,0.0243,0.0192,0.0041,-0.0068,-0.0171,-0.02,-0.0234,-0.024,-0.024,-0.0174,-0.0138,-0.0169,0,0,0,0,0,0.0055,0.0075,0.0108,0.0154,0.0195,0.0224,0.0282,0.0312,0.0338,0.0341,0.0341,0.0265,0.0122,0.0059,-0.0043,-0.0095,-0.0235,-0.022,-0.0281,-0.0362,-0.036,-0.03,0,0,0,0,0,0,0.0051,0.0076,0.01,0.0146,0.0179,0.0233,0.0274,0.0303,0.0314,0.0327,0.0258,0.0231,0.0091,0.0178,-0.0049,-0.0081,-0.0135,-0.0285,-0.0288,-0.0362,-0.0361,-0.036,-0.0298,0,0,0,0,0]}]]